sat.trackr.live / text

‹ back to catalog

GLOBAL-32

NORAD 64231 · 2025-118B

PAYLOAD ACTIVE UNKNOWN

§ Identity

Operator
Country
US
Launch date
2025-06-02
Launch site
RLLB
Launch vehicle
Mass (kg)
RCS (m²)

External: N2YO · Heavens-Above · Gunter

§ Orbital elements

Epoch: 2026-05-24T22:17:24.490752Z

Period
93.63 min
Inclination
58.9931°
Eccentricity
0.0010203
Mean motion
15.38014220 rev/d
Perigee alt
445.0 km
Apogee alt
459.0 km
Semi-major
6,830.1 km
B*
2.8831e-4
RAAN
226.4214°
Arg perigee
24.7808°
Mean anomaly
335.3756°
Rev number
5,466

§ Raw data

GLOBAL-321 64231U 25118B   26144.92875568  .00010578  00000+0  28831-3 0  99952 64231  58.9931 226.4214 0010203  24.7808 335.3756 15.38014220 54668

JSON: /api/v1/satellites/64231 · /tle

For live sub-satellite position, see the globe view (requires WebGL).

§ Visibility from observer

Set your observer location to see the next 7 days of passes ≥ 10°. The values pass through the URL so the page stays shareable.

No JS? Fill the form by hand. The geolocation button needs JavaScript.

§ Radio — SatNOGS DB

ModeDescriptionDownlinkUplink
FM Mode U - Transmitter 401.500 MHz

1 transmitter · refreshed weekly from db.satnogs.org